This is the latest recevied weather packets stored in our database for station/object W5GBS-9. If no packets are shown the sender has not sent any weather packets the latest 1 day(s).
| Time | Temp. | Humidity | Pressure | Rain* | Wind** | Luminosity | Snow |
|---|---|---|---|---|---|---|---|
| 1778081534 | 19.44° C | 100% | 0 hPa | 0.25 mm | - | - | - |
| 1778079372 | 18.33° C | 100% | 0 hPa | 1.52 mm | - | - | - |
| 1778078651 | 18.33° C | 100% | 0 hPa | 1.52 mm | - | - | - |
| 1778072165 | 17.78° C | 100% | 0 hPa | 0.25 mm | - | - | - |
| 1778070003 | 21.67° C | 100% | 0 hPa | 0 mm | - | - | - |
| 1778069282 | 22.22° C | 100% | 0 hPa | 0 mm | - | - | - |
| 1778067120 | 22.22° C | 100% | 0 hPa | 0.51 mm | - | - | - |
| 1778064958 | 22.22° C | 100% | 0 hPa | 0 mm | - | - | - |
| 1778062796 | 22.78° C | 100% | 0 hPa | 0 mm | - | - | - |
| 1778059913 | 22.78° C | 100% | 0 hPa | 0 mm | - | - | - |
| 1778059192 | 22.78° C | 100% | 0 hPa | 0 mm | - | - | - |
| 1778057751 | 22.78° C | 100% | 0 hPa | 0 mm | - | - | - |
| 1778057030 | 22.78° C | 100% | 0 hPa | 0 mm | - | - | - |
| 1778055588 | 22.78° C | 100% | 0 hPa | 0 mm | - | - | - |
| 1778053427 | 22.22° C | 100% | 0 hPa | 0 mm | - | - | - |
| 1778052705 | 21.67° C | 100% | 0 hPa | 0 mm | - | - | - |
| 1778051264 | 21.11° C | 100% | 0 hPa | 0 mm | - | - | - |
| 1778050544 | 21.11° C | 100% | 0 hPa | 0 mm | - | - | - |
| 1778049822 | 21.67° C | 100% | 0 hPa | 0 mm | - | - | - |
| 1778049102 | 21.67° C | 100% | 0 hPa | 0 mm | - | - | - |
| 1778048381 | 21.67° C | 100% | 0 hPa | 0 mm | - | - | - |
| 1778046220 | 22.22° C | 100% | 0 hPa | 0 mm | - | - | - |
| 1778045499 | 22.22° C | 100% | 0 hPa | 0 mm | - | - | - |
| 1778044058 | 22.78° C | 100% | 0 hPa | 0 mm | - | - | - |
| 1778043337 | 23.33° C | 100% | 0 hPa | 0 mm | - | - | - |
* Rain latest hour (hover to see other rain measurements)
** Current wind speed in m/s (hover to see current wind gust speed)